EW4071 Weather Reports


time (UTC)temp
F
wind
direction
speed
knots
gust
knots
rain 1hr
in
rain 24hr
in
rain mn
in
humidity
%
barometer
mb
20260505124601 55 82 6.1 16.5 0.00 0.00 0.00 83 1001.2
20260505123102 56 313 4.3 20.9 0.00 0.00 0.00 83 1001.2
20260505121556 56 93 3.5 15.6 0.00 0.00 0.00 84 1000.7
20260505120054 56 15 2.6 20.9 0.00 0.00 0.00 84 1000.9
20260505114555 57 52 5.2 19.1 0.00 0.00 0.00 84 1000.4
20260505113049 58 65 0.9 13.9 0.00 0.00 0.00 84 1000.3
20260505111541 60 32 3.5 14.8 0.00 0.00 0.00 84 1000.2
20260505101547 67 37 4.3 13.0 0.00 0.00 0.00 76 999.3
20260505100050 67 319 0.0 7.8 0.00 0.00 0.00 76 999.1
20260505094527 67 157 0.0 12.2 0.00 0.00 0.00 76 998.8
20260505093024 68 120 1.7 13.9 0.00 0.00 0.00 76 998.9
20260505091520 68 114 0.0 0.0 0.00 0.00 0.00 78 998.7
20260505090019 67 73 0.0 7.8 0.00 0.00 0.00 79 998.5
20260505084519 67 65 0.0 10.4 0.00 0.00 0.00 80 998.1
20260505083021 67 128 0.0 0.0 0.00 0.00 0.00 81 997.7
20260505081517 67 107 0.0 2.6 0.00 0.00 0.00 80 997.8
20260505080016 67 143 0.0 0.0 0.00 0.00 0.00 80 997.9
20260505074516 67 122 0.9 8.7 0.00 0.00 0.00 80 997.5
20260505073030 67 144 0.0 4.3 0.00 0.00 0.00 79 997.8
20260505071510 67 87 0.0 7.8 0.00 0.00 0.00 78 997.9
20260505070013 68 123 0.0 10.4 0.00 0.00 0.00 77 998.2
20260505064509 68 278 0.0 10.4 0.00 0.00 0.00 77 998.2
20260505063005 69 125 0.0 7.8 0.00 0.00 0.00 76 998.3
20260505061505 69 117 0.0 11.3 0.00 0.00 0.00 75 998.3
20260505060104 69 126 1.7 12.2 0.00 0.00 0.00 74 998.4
20260505054558 69 145 1.7 8.7 0.00 0.00 0.00 74 998.5
20260505053053 70 114 0.0 9.6 0.00 0.00 0.00 73 998.5
20260505051550 71 132 0.0 7.8 0.00 0.00 0.00 73 998.8
20260505041545 71 135 0.0 0.0 0.00 0.00 0.00 74 999.1
20260505040045 70 347 0.0 0.0 0.00 0.00 0.00 75 999.2
20260505034548 71 81 0.0 5.2 0.00 0.00 0.00 75 998.8
20260505033043 71 233 0.0 0.9 0.00 0.00 0.00 75 998.7
20260505031548 71 162 0.0 0.0 0.00 0.00 0.00 74 998.8
20260505030043 72 63 0.0 0.0 0.00 0.00 0.00 73 998.7
20260505024541 72 122 0.0 7.0 0.00 0.00 0.00 72 998.5
20260505023042 73 104 1.7 9.6 0.00 0.00 0.00 71 998.2
20260505021541 73 142 0.9 10.4 0.00 0.00 0.00 70 998.4
20260505020039 74 111 1.7 8.7 0.00 0.00 0.00 70 998.4
20260505014537 74 138 0.9 7.0 0.00 0.00 0.00 68 998.4
20260505013032 75 142 0.9 11.3 0.00 0.00 0.00 67 998.5
20260505011535 75 140 1.7 9.6 0.00 0.00 0.00 66 998.5
20260505010043 75 132 1.7 11.3 0.00 0.00 0.00 65 998.3
20260505004527 76 152 0.0 9.6 0.00 0.00 0.00 64 998.3
20260505003026 76 155 0.0 13.0 0.00 0.00 0.00 64 998.3
20260505001526 77 126 7.0 11.3 0.00 0.00 0.00 62 998.4
20260505000038 77 157 5.2 10.4 0.00 0.00 0.00 60 998.4
20260504234523 78 130 1.7 10.4 0.00 0.00 0.00 60 998.6
20260504233022 78 154 6.1 13.0 0.00 0.00 0.00 58 998.7
20260504231518 79 173 6.1 13.0 0.00 0.00 0.00 57 998.8
20260504230029 79 140 7.0 12.2 0.00 0.00 0.00 56 999.1
20260504224516 79 172 7.8 18.2 0.00 0.00 0.00 54 999.1
20260504223015 79 131 4.3 14.8 0.00 0.00 0.00 54 999.1
20260504221534 80 153 7.8 14.8 0.00 0.00 0.00 53 999.1
20260504220013 80 204 5.2 14.8 0.00 0.00 0.00 52 999.3
20260504214511 80 209 7.8 16.5 0.00 0.00 0.00 50 999.5
20260504213010 80 213 7.0 13.9 0.00 0.00 0.00 49 999.5
20260504211509 80 158 7.0 14.8 0.00 0.00 0.00 49 999.6
20260504210008 80 223 7.8 15.6 0.00 0.00 0.00 49 999.9
20260504204506 81 227 7.0 14.8 0.00 0.00 0.00 48 999.9
20260504203008 80 197 4.3 20.0 0.00 0.00 0.00 48 1000.0
20260504201504 81 167 7.0 17.4 0.00 0.00 0.00 48 1000.2
20260504200002 81 225 11.3 18.2 0.00 0.00 0.00 47 1000.5
20260504194601 81 192 10.4 18.2 0.00 0.00 0.00 48 1000.5
20260504193101 81 218 3.5 14.8 0.00 0.00 0.00 48 1000.7
20260504191559 80 227 7.8 14.8 0.00 0.00 0.00 48 1000.7
20260504190052 80 220 7.8 18.2 0.00 0.00 0.00 47 1000.8
20260504184549 80 228 9.6 20.0 0.00 0.00 0.00 48 1001.0
20260504183047 79 209 9.6 20.0 0.00 0.00 0.00 46 1001.0
20260504181548 79 228 8.7 14.8 0.00 0.00 0.00 46 1001.5
20260504180048 79 185 2.6 13.9 0.00 0.00 0.00 47 1001.6
20260504174543 78 174 11.3 17.4 0.00 0.00 0.00 48 1001.8
20260504173037 79 251 9.6 16.5 0.00 0.00 0.00 47 1001.8
20260504171535 78 231 11.3 17.4 0.00 0.00 0.00 49 1001.9